{"data":{"norad_id":64822,"intl_designator":"2025-151G","name":"KUIPER-00075","alt_names":[],"object_type":"PAYLOAD","status":"ACTIVE","operator":null,"country":"US","launch_date":"2025-07-16","launch_site_code":"AFETR","launch_vehicle":null,"mission":null,"orbit_class":"UNKNOWN","rcs_meters":null,"size_class":null,"mass_kg":null,"dimensions":null,"purposes":[],"wikipedia_slug":null,"has_3d_model":false,"image_url":null,"decayed_at":null,"tle_current":{"epoch":"2026-09-21T22:17:55.240512Z","epoch_age_seconds":51011,"freshness":"FRESH","line1":"1 64822U 25151G   26264.92911158  .00016614  00000+0  43472-3 0  9992","line2":"2 64822  51.8675 345.0517 0002502 259.7667 100.3038 15.38854548 66695","mean_motion":15.38854548,"eccentricity":0.0002502,"inclination_deg":51.8675,"raan_deg":345.0517,"arg_perigee_deg":259.7667,"mean_anomaly_deg":100.3038,"bstar":0.00043472,"rev_number":6669,"period_min":93.576095406257,"perigee_km":447.78705949602,"apogee_km":451.2036067155,"semimajor_km":6827.6323331058,"source":"CELESTRAK","updated_at":"2026-09-22T09:00:29.974661Z"}}}